This is the latest recevied weather packets stored in our database for station/object KA9CBS. If no packets are shown the sender has not sent any weather packets the latest 10 day(s).
| Time | Temp. | Humidity | Pressure | Rain* | Wind** | Luminosity | Snow |
|---|---|---|---|---|---|---|---|
| 1788118095 | 32.78° C | 41% | 1019 hPa | 0 mm | - | 598 W/m² | - |
| 1788117795 | 33.89° C | 40% | 1018.9 hPa | 0 mm | - | 650 W/m² | - |
| 1788117491 | 32.78° C | 41% | 1019.2 hPa | 0 mm | - | 686 W/m² | - |
| 1788117185 | 32.78° C | 43% | 1019.2 hPa | 0 mm | - | 663 W/m² | - |
| 1788116881 | 32.78° C | 40% | 1019.4 hPa | 0 mm | - | 679 W/m² | - |
| 1788116575 | 32.78° C | 41% | 1019.2 hPa | 0 mm | - | 660 W/m² | - |
| 1788116274 | 32.78° C | 42% | 1019.5 hPa | 0 mm | - | 666 W/m² | - |
| 1788115970 | 32.78° C | 44% | 1019.2 hPa | 0 mm | - | 657 W/m² | - |
| 1788115669 | 32.22° C | 46% | 1019.5 hPa | 0 mm | - | 651 W/m² | - |
| 1788115368 | 32.78° C | 43% | 1019.2 hPa | 0 mm | - | 623 W/m² | - |
| 1788115064 | 32.78° C | 43% | 1019.6 hPa | 0 mm | - | 634 W/m² | - |
| 1788114758 | 33.33° C | 43% | 1019.6 hPa | 0 mm | - | 676 W/m² | - |
| 1788114453 | 32.78° C | 43% | 1019.5 hPa | 0 mm | - | 704 W/m² | - |
| 1788114150 | 32.78° C | 44% | 1019.6 hPa | 0 mm | - | 646 W/m² | - |
| 1788113846 | 32.78° C | 43% | 1019.7 hPa | 0 mm | - | 662 W/m² | - |
| 1788113540 | 32.22° C | 45% | 1019.6 hPa | 0 mm | - | 684 W/m² | - |
| 1788113239 | 32.78° C | 45% | 1019.7 hPa | 0 mm | - | 660 W/m² | - |
| 1788112928 | 32.22° C | 44% | 1019.9 hPa | 0 mm | - | 634 W/m² | - |
| 1788112627 | 32.78° C | 45% | 1020 hPa | 0 mm | - | 650 W/m² | - |
| 1788112322 | 32.22° C | 47% | 1019.9 hPa | 0 mm | - | 635 W/m² | - |
| 1788112017 | 31.67° C | 46% | 1020 hPa | 0 mm | - | 668 W/m² | - |
| 1788111713 | 31.67° C | 45% | 1020 hPa | 0 mm | - | 691 W/m² | - |
| 1788111408 | 32.22° C | 45% | 1020.1 hPa | 0 mm | - | 691 W/m² | - |
| 1788111103 | 31.67° C | 43% | 1020.2 hPa | 0 mm | - | 693 W/m² | - |
| 1788110800 | 31.67° C | 43% | 1020.3 hPa | 0 mm | - | 669 W/m² | - |
* Rain latest hour (hover to see other rain measurements)
** Current wind speed in m/s (hover to see current wind gust speed)